DELTA 1 R/B

基本信息
目录编号:
3036
目录名称:
DELTA 1 R/B
国际标识:
1967-114B
轨道中心:
EARTH
物体状态:
在轨
发射日期:
1967-11-10 UTC
国别:
美国 (US)
轨道信息
数据来源: 国际轨道数据
星历时间: 2026-07-14T04:58:50+0800
半长轴: 7825.365km
偏心率: 0.0048399
轨道倾角: 102.014°
近地点辐角: 88.095°
升交点赤经: 296.334°
平近点角: 20.508°
近地点: 1409.354km
远地点: 1485.102km
周期: 114.820分钟
每日圈数: 12.541397
详细信息
发射场:
AFWTR
轨道高度:
LEO
数据来源:
AOE Integration Group
参考系:
TEME
时间系统:
UTC
历元类型:
SGP4
2D轨道图
3D轨道图
轨道高度分析图
轨道倾角分析图
轨道综合分析图
查看轨道综合分析图